Stations météo

réclame
Mon MeteoGroup
Ritsem, Suède (2013): Température de l'air & dewpoint: 28.07.2020 13:00:00 - 03.08.2020 13:00:00 (CEST)Ritsem, Suède (2013): Vitesse du vent & gusts: 28.07.2020 13:00:00 - 03.08.2020 13:00:00 (CEST)Ritsem, Suède (2013): Direction du vent: 28.07.2020 13:00:00 - 03.08.2020 13:00:00 (CEST)Ritsem, Suède (2013): reduced air pressure: 28.07.2020 13:00:00 - 03.08.2020 13:00:00 (CEST)Ritsem, Suède (2013): visibility: 28.07.2020 13:00:00 - 03.08.2020 13:00:00 (CEST)Ritsem, Suède (2013): Quantités de précipitations: 28.07.2020 13:00:00 - 03.08.2020 13:00:00 (CEST)
Date & Time tt [°C] td [°C] ff [km/h] ff [knt] fx [km/h] fx [knt] dd ppp [hPa] vv [km] rr [mm]
03.08.2020 13:00:00 16,5 9,2 7 4 22 12 SSE 1001,2 35 0,0
03.08.2020 12:00:00 15,6 9,3 10 6 22 12 SSE 1001,5 46 0,0
03.08.2020 11:00:00 14,7 9,5 10 5 22 12 SSE 1001,8 41 0,0
03.08.2020 10:00:00 13,3 9,4 5 3 15 8 SSW 1002,6 41 0,0
03.08.2020 09:00:00 13,7 9,5 6 3 13 7 S 1002,9 40 0,0
03.08.2020 08:00:00 13,4 9,3 3 2 9 5 SW 1003,2 43 0,0
03.08.2020 07:00:00 12,7 8,6 3 1 6 3 WSW 1003,9 47 0,0
03.08.2020 06:00:00 11,3 8,5 6 3 9 5 WNW 1004,5 49 0,0
03.08.2020 05:00:00 10,4 8,0 3 2 11 6 WNW 1005,1 50 0,0
03.08.2020 04:00:00 9,9 7,3 3 2 10 6 W 1005,3 50 0,0
03.08.2020 03:00:00 11,0 7,3 4 2 22 12 W 1005,5 50 0,0
03.08.2020 02:00:00 12,5 7,4 6 3 30 16 NE 1005,3 50 0,0
03.08.2020 01:00:00 13,7 7,5 14 8 36 19 ESE 1005,2 50 0,0
03.08.2020 00:00:00 14,0 7,7 18 10 35 19 ESE 1005,2 50 0,0
02.08.2020 23:00:00 14,6 7,9 17 9 31 17 ESE 1005,0 50 0,0
02.08.2020 22:00:00 14,9 7,9 14 8 29 16 ESE 1005,2 50 0,0
02.08.2020 21:00:00 15,4 8,4 18 10 - - ESE 1005,2 50 0,0
02.08.2020 20:00:00 16,4 8,4 19 10 34 18 SE 1004,8 49 0,0
02.08.2020 19:00:00 17,4 8,3 20 11 35 19 SE 1004,9 50 0,0
02.08.2020 18:00:00 18,1 8,6 17 9 33 18 SE 1005,1 46 0,0
02.08.2020 17:00:00 18,8 7,6 15 8 31 17 SE 1005,3 50 0,0
02.08.2020 16:00:00 19,1 7,5 16 9 34 19 SE 1005,7 44 0,0
02.08.2020 15:00:00 19,0 7,4 18 10 29 16 SE 1006,1 36 0,0
02.08.2020 14:00:00 19,4 7,2 13 7 29 16 SE 1006,3 40 0,0
02.08.2020 13:00:00 18,7 7,2 16 9 32 17 SE 1006,8 43 0,0
02.08.2020 12:00:00 18,1 8,4 18 10 32 17 SE 1007,3 50 0,0
02.08.2020 11:00:00 17,4 8,5 16 9 31 17 SE 1007,9 42 0,0
02.08.2020 10:00:00 16,9 9,3 14 8 27 15 SE 1008,5 48 0,0
02.08.2020 09:00:00 15,8 9,0 13 7 29 16 SE 1009,2 45 0,0
02.08.2020 08:00:00 15,0 9,4 10 5 22 12 SE 1009,9 39 0,0
02.08.2020 07:00:00 14,1 8,5 5 3 13 7 WSW 1010,4 49 0,0
02.08.2020 06:00:00 13,4 8,7 3 2 11 6 N 1011,0 50 0,0
02.08.2020 05:00:00 11,7 8,2 7 4 12 6 W 1011,7 50 0,0
02.08.2020 04:00:00 13,0 7,7 9 5 21 11 E 1011,7 50 0,0
02.08.2020 03:00:00 13,8 7,8 13 7 27 14 E 1011,8 50 0,0
02.08.2020 02:00:00 14,2 7,9 16 8 31 17 ESE 1011,8 50 0,0
02.08.2020 01:00:00 14,3 8,3 17 9 37 20 ESE 1012,1 50 0,0
02.08.2020 00:00:00 14,7 8,0 14 7 27 15 ESE 1011,9 50 0,0
01.08.2020 23:00:00 13,9 8,5 9 5 19 11 E 1012,5 50 0,0
01.08.2020 22:00:00 13,8 9,0 10 6 20 11 NNE 1012,6 50 0,0
01.08.2020 21:00:00 15,2 9,1 9 5 17 9 N 1012,0 50 0,0
01.08.2020 20:00:00 18,0 7,7 5 3 11 6 NE 1011,7 50 0,0
01.08.2020 19:00:00 18,2 5,7 3 1 8 5 SSW 1011,8 50 0,0
01.08.2020 18:00:00 18,2 6,4 4 2 10 5 S 1012,1 50 0,0
01.08.2020 17:00:00 18,8 6,9 5 3 12 7 S 1012,4 50 0,0
01.08.2020 16:00:00 18,2 7,6 9 5 14 8 S 1012,9 47 0,0
01.08.2020 15:00:00 17,8 9,2 6 4 11 6 S 1013,4 44 0,0
01.08.2020 14:00:00 17,0 8,7 6 4 12 7 SSW 1014,1 41 0,0
01.08.2020 13:00:00 15,9 9,8 6 4 12 7 S 1014,8 38 0,0
01.08.2020 12:00:00 15,2 10,0 6 4 11 6 S 1015,3 44 0,0
01.08.2020 11:00:00 14,0 9,8 4 2 10 5 SSW 1016,0 46 0,0
01.08.2020 10:00:00 13,1 9,9 6 3 13 7 S 1016,5 46 0,0
01.08.2020 09:00:00 14,0 10,4 6 3 18 10 SW 1016,5 49 0,0
01.08.2020 08:00:00 14,1 9,7 6 4 18 10 ENE 1016,8 50 0,0
01.08.2020 07:00:00 12,8 9,8 6 3 11 6 NNE 1017,4 50 0,0
01.08.2020 06:00:00 11,8 10,0 4 2 7 4 W 1018,0 50 0,0
01.08.2020 05:00:00 10,9 9,3 7 4 18 10 N 1018,7 50 0,0
01.08.2020 04:00:00 10,7 9,1 10 6 16 9 N 1018,8 50 0,0
01.08.2020 03:00:00 11,5 9,9 4 2 7 4 NW 1018,8 50 0,0
01.08.2020 02:00:00 11,8 10,0 3 2 5 3 NNW 1019,0 49 0,0
01.08.2020 01:00:00 11,7 9,9 4 2 6 4 N 1019,3 50 0,0
01.08.2020 00:00:00 11,9 10,0 2 1 7 4 N 1019,2 50 0,0
31.07.2020 23:00:00 12,3 10,4 6 3 10 5 ENE 1019,0 50 0,0
31.07.2020 22:00:00 13,3 9,7 5 3 14 8 ENE 1018,6 50 0,0
31.07.2020 21:00:00 15,0 9,6 8 4 22 12 NW 1017,7 50 0,0
31.07.2020 20:00:00 15,9 9,8 14 8 26 14 WNW 1017,3 49 0,0
31.07.2020 19:00:00 17,5 10,1 13 7 29 16 WNW 1016,8 49 0,0
31.07.2020 18:00:00 18,1 9,7 14 7 28 15 WNW 1016,4 44 0,0
31.07.2020 17:00:00 19,0 9,5 16 9 34 18 W 1016,0 43 0,0
31.07.2020 16:00:00 19,0 10,3 19 10 33 18 W 1015,7 42 0,0
31.07.2020 15:00:00 19,3 10,0 19 10 32 18 WSW 1015,5 42 0,0
31.07.2020 14:00:00 19,4 10,4 11 6 20 11 WSW 1015,4 40 0,0
31.07.2020 13:00:00 17,5 9,9 8 4 14 7 S 1015,8 38 0,0
31.07.2020 12:00:00 15,1 10,1 3 1 5 3 SSW 1016,5 38 0,0
31.07.2020 11:00:00 14,3 10,9 3 2 5 3 E 1016,6 37 0,0
31.07.2020 10:00:00 13,3 11,5 2 1 9 5 WSW 1016,5 47 0,0
31.07.2020 09:00:00 13,3 10,7 3 2 - - NE 1016,2 43 0,0
31.07.2020 08:00:00 12,6 10,8 4 2 6 3 SE 1016,1 38 0,4
31.07.2020 07:00:00 12,9 8,4 4 2 11 6 SSW 1015,9 50 0,0
31.07.2020 06:00:00 13,0 7,2 5 3 13 7 NNE 1015,3 50 0,0
31.07.2020 05:00:00 11,5 6,4 9 5 18 10 N 1015,5 50 0,0
31.07.2020 04:00:00 11,4 6,5 13 7 19 10 NNE 1015,1 50 0,0
31.07.2020 03:00:00 11,3 6,6 14 8 20 11 N 1014,8 50 0,0
31.07.2020 02:00:00 11,4 6,7 14 8 21 12 NNE 1014,4 50 0,0
31.07.2020 01:00:00 12,1 7,2 14 8 20 11 NNE 1013,9 50 0,0
31.07.2020 00:00:00 13,0 7,4 13 7 19 10 N 1013,2 50 0,0
30.07.2020 23:00:00 13,1 8,0 9 5 18 10 NNE 1012,6 50 0,0
30.07.2020 22:00:00 13,7 8,3 8 4 14 8 NNE 1012,0 50 0,0
30.07.2020 21:00:00 15,5 9,8 5 3 8 4 NNE 1010,9 50 0,0
30.07.2020 20:00:00 17,3 9,7 5 3 15 8 NNE 1010,0 50 0,0
30.07.2020 19:00:00 18,6 8,8 6 3 17 9 SE 1009,2 49 0,0
30.07.2020 18:00:00 18,6 8,0 4 2 13 7 S 1008,9 48 0,0
30.07.2020 17:00:00 19,5 7,9 4 2 12 7 S 1008,3 42 0,0
30.07.2020 16:00:00 19,3 8,0 7 4 14 8 SSW 1007,8 44 0,0
30.07.2020 15:00:00 19,2 7,9 8 4 19 11 S 1007,5 46 0,0
30.07.2020 14:00:00 17,7 7,7 5 3 13 7 S 1007,8 41 0,0
30.07.2020 13:00:00 17,7 9,1 9 5 23 12 SSE 1007,7 50 0,0
30.07.2020 12:00:00 17,6 9,5 12 6 23 12 SSE 1007,6 45 0,0
30.07.2020 11:00:00 16,6 9,5 8 5 27 15 SE 1007,7 47 0,0
30.07.2020 10:00:00 16,3 9,5 12 7 25 14 SE 1007,5 46 0,0
30.07.2020 09:00:00 15,6 8,6 15 8 28 15 SE 1007,5 43 0,0
30.07.2020 08:00:00 15,0 8,9 14 8 32 17 SE 1007,3 50 0,0
30.07.2020 07:00:00 14,8 9,6 8 5 17 9 ESE 1007,1 50 0,0
30.07.2020 06:00:00 14,1 9,7 5 3 11 6 NE 1007,1 50 0,0
30.07.2020 05:00:00 13,1 9,9 5 3 21 11 NE 1007,2 50 0,0
30.07.2020 04:00:00 13,8 9,8 10 5 20 11 E 1006,9 50 0,0
30.07.2020 03:00:00 13,1 9,9 10 6 23 12 E 1006,7 50 0,0
30.07.2020 02:00:00 13,0 10,0 12 6 29 16 ESE 1006,7 50 0,0
30.07.2020 01:00:00 13,2 9,4 13 7 31 17 ESE 1006,7 50 0,0
30.07.2020 00:00:00 13,0 9,4 9 5 22 12 ESE 1006,9 50 0,0
29.07.2020 23:00:00 12,8 8,9 5 3 18 10 SW 1007,0 50 0,0
29.07.2020 22:00:00 13,4 9,1 4 2 25 13 SW 1006,9 50 0,0
29.07.2020 21:00:00 14,5 10,3 14 8 25 14 E 1006,2 50 0,0
29.07.2020 20:00:00 14,8 10,6 14 8 26 14 ESE 1006,5 50 0,0
29.07.2020 19:00:00 15,3 10,3 11 6 29 16 SE 1006,4 50 0,0
29.07.2020 18:00:00 16,0 10,1 16 9 39 21 ESE 1006,2 50 0,0
29.07.2020 17:00:00 16,8 10,2 16 9 33 18 ESE 1005,9 50 0,0
29.07.2020 16:00:00 16,6 11,3 15 8 28 15 ESE 1005,6 48 0,0
29.07.2020 15:00:00 15,5 11,5 14 7 33 18 ESE 1006,1 47 0,0
29.07.2020 14:00:00 16,0 11,2 19 11 34 18 SE 1006,0 50 0,0
29.07.2020 13:00:00 15,3 10,9 11 6 31 17 ESE 1006,3 50 0,0
29.07.2020 12:00:00 15,4 10,8 16 9 36 19 SE 1006,2 48 0,0
29.07.2020 11:00:00 14,9 11,3 14 8 28 15 SE 1006,7 50 0,0
29.07.2020 10:00:00 14,7 11,3 18 10 31 17 ESE 1006,9 48 0,0
29.07.2020 09:00:00 14,2 10,6 13 7 29 15 ESE 1007,1 50 0,0
29.07.2020 08:00:00 13,9 10,3 11 6 29 15 E 1007,2 50 0,0
29.07.2020 07:00:00 14,2 9,8 6 3 33 18 E 1007,3 50 0,0
29.07.2020 06:00:00 14,2 9,4 8 4 23 12 E 1007,5 50 0,0
29.07.2020 05:00:00 13,9 9,5 13 7 24 13 E 1007,8 50 0,0
29.07.2020 04:00:00 13,8 9,4 14 7 42 23 ESE 1008,3 26 0,0
29.07.2020 03:00:00 14,0 9,0 24 13 42 23 ESE 1008,7 50 0,0
29.07.2020 02:00:00 13,7 9,5 24 13 45 24 ESE 1008,8 34 0,0
29.07.2020 01:00:00 14,2 10,2 24 13 43 23 ESE 1008,7 50 0,2
29.07.2020 00:00:00 14,0 10,2 24 13 45 24 ESE 1009,2 21 0,0
28.07.2020 23:00:00 13,3 10,3 18 10 30 16 ESE 1010,0 50 0,0
28.07.2020 22:00:00 14,1 9,1 10 5 39 21 ESE 1010,0 50 0,0
28.07.2020 21:00:00 14,0 10,2 18 10 34 19 ESE 1010,3 50 0,0
28.07.2020 20:00:00 14,1 10,3 10 5 41 22 ESE 1010,6 50 0,0
28.07.2020 19:00:00 15,3 10,3 19 10 48 26 ESE 1010,2 46 0,0
28.07.2020 18:00:00 15,3 10,3 28 15 48 26 ESE 1010,6 50 0,0
28.07.2020 17:00:00 15,1 10,5 19 10 45 24 ESE 1010,9 50 0,0
28.07.2020 16:00:00 15,8 9,9 20 11 48 26 ESE 1011,0 50 0,0
28.07.2020 15:00:00 15,4 10,4 22 12 46 25 ESE 1011,5 50 0,0
28.07.2020 14:00:00 17,0 11,1 24 13 48 26 ESE 1011,3 41 0,0
28.07.2020 13:00:00 17,4 11,0 22 12 44 24 SE 1011,1 45 0,0

tt = Température de l'air
td = dewpoint
ff = Vitesse du vent
fx = gusts
dd = Direction du vent
ppp = reduced air pressure
vv = visibility
rr = Quantités de précipitations

stations d'obs. à proximité